Wind_Speed
15 15 14 15 15 16 18 19 21 23 24 25 26 27 28 28 29 30 31 32 33 34 35 35 35 36 36 37 38 38 39 40 41 41 42 43 43 44 44 44 44 45 43 42
15 14 14 14 15 16 17 20 21 22 23 25 26 27 28 29 31 32 32 33 33 34 34 35 36 35 35 36 36 37 37 37 37 38 40 42 43 45 45 44 43 44 44 44
14 13 13 13 14 16 17 19 20 22 23 24 27 28 29 30 31 31 32 32 32 32 32 33 33 33 33 33 33 33 34 34 34 35 36 38 40 42 44 44 44 44 44 45
12 11 11 12 13 14 16 17 19 21 23 25 26 29 28 29 30 30 31 30 30 30 30 30 30 30 30 30 30 30 31 31 31 32 33 34 35 37 40 41 43 43 43 44
10 9 9 10 11 13 15 17 19 21 22 24 25 26 27 27 28 28 28 28 28 28 28 28 28 27 27 27 26 26 26 27 28 29 29 30 31 32 35 37 39 40 41 42
8 7 8 9 10 12 14 17 18 20 21 22 23 24 26 25 25 25 26 26 25 25 25 25 25 24 24 23 23 23 23 23 24 24 24 25 26 27 29 32 34 36 38 40
6 5 6 8 9 11 14 17 19 21 22 23 23 24 24 24 24 24 23 23 22 21 21 22 21 21 20 20 19 20 20 20 20 19 20 21 22 23 24 27 29 31 33 35
4 3 4 6 9 12 14 16 18 20 21 22 23 23 23 23 23 22 21 20 20 20 20 19 19 18 18 18 17 17 17 17 16 15 16 16 16 17 19 22 24 26 28 30
2 1 3 6 9 12 15 16 17 18 19 21 22 22 22 22 22 21 20 20 19 19 19 19 19 19 19 17 16 15 15 14 13 13 13 12 11 12 14 16 18 20 23 26
2 1 4 7 11 13 14 16 17 18 20 21 21 21 22 22 21 20 20 20 19 18 19 19 19 19 18 18 16 15 15 12 11 11 10 10 9 9 9 11 13 16 18 21
2 3 5 9 11 13 14 15 17 17 18 19 20 21 20 20 20 20 20 20 20 19 20 20 20 19 18 18 17 16 15 13 12 11 10 9 8 7 7 7 8 11 14 17
3 4 6 9 11 13 14 15 16 17 18 19 19 19 20 20 19 19 19 20 20 21 21 21 20 20 20 19 18 18 16 14 13 12 11 10 8 6 5 5 5 6 7 11
4 5 7 9 11 12 13 14 16 17 18 19 19 19 19 20 20 20 20 21 21 21 21 21 22 22 21 21 20 19 17 15 14 13 12 12 11 8 5 3 3 4 5 7
5 6 7 9 10 12 13 14 15 17 18 19 19 19 19 20 20 20 21 22 21 21 22 22 23 22 22 22 21 20 18 16 16 15 13 13 13 11 8 5 3 2 3 5
5 6 7 9 10 12 13 13 15 16 17 18 19 19 19 19 20 20 21 22 22 22 22 23 23 23 23 23 23 22 20 18 17 16 15 14 13 12 11 9 7 4 2 4
5 6 7 8 10 11 12 13 14 15 17 17 18 18 19 19 20 20 21 22 23 23 23 23 24 24 24 24 23 23 22 21 19 18 17 15 14 13 12 10 8 7 4 1
4 5 7 8 9 10 11 13 14 14 16 17 17 18 18 18 19 20 21 22 22 23 24 24 24 24 24 24 24 23 22 22 21 20 18 17 16 15 13 11 10 9 7 5
3 4 6 7 8 10 11 12 13 13 14 15 16 17 17 18 19 19 20 21 22 22 23 23 24 24 24 24 24 24 23 22 22 21 20 19 18 17 15 13 11 10 8 7
1 3 4 6 7 9 10 11 12 12 13 14 15 15 16 17 18 19 19 20 21 21 22 23 23 24 24 24 24 24 24 23 23 22 21 20 19 18 17 16 13 11 9 7
0 1 3 4 6 7 9 10 11 11 12 12 13 14 15 16 17 17 18 19 20 20 21 22 22 23 24 24 24 24 24 24 24 23 22 21 20 20 19 17 15 13 11 9
2 1 2 3 4 6 7 8 9 10 11 11 12 13 14 15 16 16 17 18 19 19 20 20 21 22 22 23 23 23 23 23 23 23 23 22 22 21 20 19 17 16 14 12
4 3 2 3 4 5 6 7 8 9 9 10 10 11 12 13 14 16 16 17 18 18 19 20 20 21 21 22 22 23 23 23 23 22 22 22 22 21 20 19 19 17 16 14
6 5 4 4 4 4 5 6 7 7 8 9 9 10 11 12 13 14 15 16 17 17 18 19 19 20 20 21 21 22 22 22 22 22 22 22 22 21 21 20 19 18 17 15
9 8 7 6 5 5 5 6 6 7 7 8 8 9 10 10 11 12 14 15 15 16 17 18 18 19 19 20 20 21 21 22 22 22 22 22 21 21 21 20 20 19 18 17
11 10 9 8 8 7 7 6 7 7 7 8 8 9 9 10 10 11 12 13 14 14 15 16 17 18 18 19 19 20 20 21 21 22 22 22 21 21 20 20 20 19 19 18
14 13 12 11 10 9 8 8 8 8 8 8 8 8 9 9 9 10 10 11 12 13 14 14 15 16 17 17 18 19 19 20 20 21 21 21 21 20 19 19 19 19 19 18
Wind_Direction
241 251 262 272 280 288 294 298 301 303 304 303 303 302 302 301 299 297 295 294 293 292 290 289 288 287 286 284 280 278 277 274 271 269 267 265 264 262 261 260 258 257 255 253
242 253 264 273 282 290 296 300 302 304 305 305 305 304 303 302 300 299 298 296 295 294 293 292 290 289 289 287 283 280 278 275 274 271 269 266 264 263 262 260 257 254 254 253
242 255 266 277 287 295 300 303 306 307 308 308 307 306 306 305 303 302 301 299 298 298 296 295 294 292 291 290 288 284 279 276 274 272 271 268 265 263 261 259 257 254 252 251
243 257 269 281 292 300 304 308 311 312 313 313 313 311 312 311 309 308 307 305 304 303 301 299 298 297 295 294 292 289 284 280 277 276 274 270 266 263 260 259 258 255 251 250
242 256 272 287 298 305 310 315 316 317 317 318 319 317 319 318 316 316 314 313 311 309 307 305 304 302 301 299 297 294 290 286 282 280 277 270 267 264 259 256 254 252 250 249
238 256 277 294 306 313 318 321 323 325 326 326 327 326 326 326 324 322 320 318 317 315 315 313 311 309 307 306 303 301 298 292 288 285 280 274 271 266 260 255 251 249 248 247
236 260 287 306 317 324 327 331 333 334 335 334 333 332 332 332 330 328 327 327 326 326 326 327 325 323 319 315 311 307 305 301 295 291 289 283 277 269 260 255 250 247 246 246
228 269 307 324 331 334 336 338 339 339 338 338 339 339 338 339 339 339 338 338 336 338 340 340 340 337 332 327 322 318 315 311 305 301 301 296 286 272 262 254 249 245 244 243
196 303 341 341 341 342 343 344 345 346 346 346 347 346 346 347 349 349 348 348 349 348 349 349 348 347 345 341 336 332 327 322 318 312 310 306 297 282 270 259 248 243 240 238
142 26 358 352 351 351 352 354 354 355 355 355 355 355 356 357 357 358 358 359 358 359 359 357 355 353 353 351 350 347 345 341 335 328 323 318 310 299 283 266 253 244 237 234
104 31 7 1 359 359 2 3 4 5 6 4 2 3 4 5 6 6 6 7 7 7 6 5 5 5 4 2 0 1 1 0 359 355 347 339 328 308 293 279 262 249 239 236
78 31 15 9 8 9 11 13 14 15 15 14 13 13 14 14 14 14 15 14 13 13 12 12 13 12 11 10 9 10 10 12 12 10 8 2 351 333 308 283 275 259 240 235
64 36 22 17 16 15 17 20 22 22 22 21 21 21 20 21 20 21 20 19 18 18 19 21 21 20 19 19 18 16 17 18 17 16 15 14 11 4 348 311 279 260 244 240
60 39 27 22 20 20 22 24 25 26 26 25 25 25 26 25 25 27 25 23 23 24 25 25 24 24 24 25 25 25 25 25 23 22 21 22 20 19 14 10 334 273 256 249
57 39 33 30 27 25 27 27 27 28 28 28 28 29 30 30 29 28 27 27 27 27 28 27 27 27 28 29 28 29 30 29 28 26 25 25 23 24 23 23 20 9 293 261
53 41 37 35 30 28 29 29 29 29 29 30 30 31 32 31 30 30 30 30 30 31 31 31 31 31 32 32 32 33 33 32 32 31 31 28 26 27 28 27 24 22 19 331
51 40 38 36 31 29 30 29 30 30 31 31 31 31 32 32 32 32 32 32 33 33 34 34 34 33 33 34 35 35 34 34 34 35 34 32 32 31 30 32 35 32 29 23
50 39 35 33 30 29 29 29 29 29 30 31 31 32 33 33 33 33 33 33 33 35 35 36 35 35 35 36 36 36 36 36 36 35 35 34 33 31 30 29 28 28 26 23
46 36 31 28 28 29 27 26 25 27 29 30 31 32 33 32 33 33 33 33 34 35 35 36 36 36 36 36 37 37 37 37 36 36 35 35 34 33 32 30 27 26 25 22
283 13 18 19 20 21 23 24 24 25 29 29 30 30 30 30 30 30 31 32 33 33 34 35 35 36 36 36 37 37 36 35 36 36 35 35 35 34 32 31 30 29 27 25
249 288 343 360 7 12 15 18 19 22 24 25 26 26 26 26 27 28 30 31 31 31 32 33 33 34 35 35 36 35 35 35 35 35 34 34 34 33 33 33 34 33 31 30
241 257 288 324 343 350 359 6 12 15 17 18 19 20 22 23 24 25 27 28 29 30 31 31 32 32 33 34 34 34 34 33 33 33 33 32 32 32 33 34 35 35 36 35
241 250 265 288 309 327 341 350 357 1 5 7 9 12 14 17 20 21 23 25 27 28 29 30 30 31 31 32 32 32 31 32 32 31 31 31 32 32 33 33 35 36 37 38
244 249 258 270 284 300 316 328 339 346 351 356 358 1 4 7 10 13 17 20 23 25 26 27 28 29 29 29 30 30 31 31 30 31 31 31 32 33 33 35 37 38 40 41
247 250 256 263 271 282 293 305 316 326 335 342 346 350 354 356 359 2 7 12 16 19 21 23 24 25 27 28 28 28 29 30 31 31 32 32 33 34 35 37 39 40 41 42
250 252 255 259 265 272 280 289 299 309 316 324 332 337 342 346 348 353 357 2 7 11 14 17 19 21 22 24 26 27 28 29 30 31 32 32 32 33 35 36 38 39 40 42
Height
5922 5923 5922 5922 5921 5920 5918 5916 5913 5910 5907 5903 5900 5896 5893 5889 5886 5882 5878 5874 5870 5866 5863 5860 5856 5854 5851 5848 5846 5843 5842 5840 5840 5839 5839 5839 5839 5839 5840 5842 5844 5846 5848 5851
5920 5920 5920 5919 5919 5917 5916 5913 5910 5907 5903 5899 5895 5891 5888 5883 5879 5875 5871 5866 5862 5858 5855 5851 5848 5844 5841 5838 5835 5833 5831 5830 5829 5828 5828 5827 5827 5827 5828 5830 5833 5835 5838 5840
5918 5919 5918 5917 5916 5914 5912 5910 5906 5903 5899 5895 5891 5887 5882 5877 5872 5868 5863 5859 5855 5851 5847 5843 5839 5835 5832 5829 5826 5823 5821 5820 5819 5818 5817 5816 5816 5816 5816 5818 5821 5824 5827 5829
5916 5916 5916 5915 5914 5912 5909 5907 5903 5900 5896 5891 5887 5881 5877 5871 5866 5861 5856 5852 5847 5843 5839 5835 5831 5828 5824 5821 5817 5814 5812 5810 5809 5807 5806 5805 5805 5805 5806 5807 5809 5812 5816 5819
5914 5914 5914 5913 5912 5909 5907 5904 5900 5896 5892 5887 5882 5878 5872 5866 5860 5856 5850 5845 5841 5837 5832 5828 5824 5821 5817 5813 5810 5807 5804 5802 5800 5798 5796 5795 5795 5795 5795 5797 5799 5802 5805 5809
5913 5912 5912 5911 5909 5907 5904 5901 5897 5893 5889 5884 5879 5874 5868 5862 5856 5851 5846 5841 5836 5832 5827 5822 5818 5814 5810 5806 5803 5800 5797 5795 5792 5790 5788 5787 5786 5785 5786 5787 5789 5792 5795 5799
5911 5911 5910 5909 5907 5905 5902 5899 5895 5890 5885 5881 5875 5870 5865 5858 5853 5847 5842 5837 5832 5828 5823 5818 5813 5809 5805 5801 5798 5795 5792 5789 5786 5784 5782 5780 5778 5778 5777 5778 5780 5783 5786 5790
5910 5910 5909 5907 5906 5903 5900 5897 5894 5889 5884 5878 5872 5867 5862 5856 5850 5845 5840 5835 5830 5825 5820 5815 5811 5806 5802 5798 5794 5791 5787 5784 5781 5779 5776 5774 5772 5771 5771 5771 5773 5776 5779 5782
5909 5909 5908 5906 5904 5902 5898 5895 5891 5887 5882 5876 5871 5865 5860 5854 5848 5843 5838 5833 5828 5824 5819 5814 5809 5804 5800 5795 5791 5788 5784 5781 5778 5775 5773 5770 5768 5767 5766 5767 5768 5769 5772 5775
5908 5908 5907 5905 5903 5900 5897 5893 5889 5885 5880 5875 5869 5864 5859 5853 5848 5842 5837 5833 5828 5823 5818 5813 5808 5803 5799 5794 5790 5786 5783 5779 5776 5773 5771 5768 5767 5765 5764 5764 5764 5765 5767 5770
5908 5908 5907 5904 5902 5899 5896 5892 5888 5884 5879 5874 5869 5866 5859 5853 5848 5843 5838 5833 5828 5823 5818 5813 5808 5803 5798 5794 5790 5785 5782 5779 5775 5773 5770 5768 5766 5764 5763 5762 5762 5763 5764 5766
5907 5907 5905 5903 5901 5898 5894 5891 5887 5884 5879 5874 5869 5868 5859 5854 5849 5844 5839 5834 5829 5824 5819 5814 5809 5804 5799 5794 5790 5786 5782 5779 5776 5773 5770 5768 5766 5764 5762 5761 5761 5761 5761 5762
5907 5906 5905 5903 5902 5898 5894 5891 5887 5884 5879 5875 5870 5868 5860 5855 5850 5845 5840 5836 5831 5826 5821 5816 5811 5806 5801 5796 5792 5787 5783 5780 5777 5774 5772 5769 5766 5764 5762 5761 5760 5760 5760 5760
5906 5905 5905 5904 5900 5897 5894 5891 5888 5884 5880 5876 5871 5867 5862 5857 5852 5847 5843 5838 5833 5828 5823 5818 5813 5808 5803 5799 5794 5789 5785 5782 5779 5776 5773 5770 5767 5765 5763 5761 5760 5759 5759 5759
5906 5905 5903 5902 5900 5897 5894 5891 5888 5885 5881 5877 5873 5868 5864 5859 5854 5850 5845 5840 5835 5830 5826 5821 5816 5811 5806 5801 5797 5792 5788 5785 5781 5778 5775 5772 5769 5766 5764 5762 5760 5759 5759 5759
5906 5905 5903 5902 5899 5897 5895 5892 5889 5885 5882 5878 5874 5870 5866 5861 5857 5852 5848 5843 5838 5833 5828 5824 5819 5814 5810 5805 5800 5796 5791 5788 5784 5780 5777 5774 5771 5768 5766 5764 5762 5760 5759 5758
5905 5904 5903 5902 5900 5898 5896 5893 5890 5887 5883 5880 5876 5873 5868 5864 5859 5855 5850 5846 5841 5836 5832 5827 5823 5818 5813 5809 5804 5800 5795 5791 5787 5783 5780 5776 5773 5770 5767 5765 5763 5762 5760 5759
5905 5904 5903 5902 5901 5898 5898 5893 5890 5887 5884 5881 5877 5874 5870 5866 5862 5857 5853 5849 5844 5840 5835 5831 5826 5822 5817 5812 5808 5804 5799 5795 5791 5787 5783 5780 5776 5773 5770 5767 5765 5763 5761 5760
5904 5904 5903 5901 5900 5898 5897 5893 5891 5888 5885 5882 5879 5875 5872 5868 5864 5860 5856 5852 5847 5843 5839 5835 5830 5826 5821 5817 5812 5808 5803 5799 5795 5791 5787 5783 5779 5776 5773 5770 5767 5765 5763 5761
5903 5903 5902 5901 5900 5898 5898 5894 5891 5890 5886 5883 5880 5877 5873 5870 5867 5863 5859 5854 5850 5846 5842 5838 5834 5830 5825 5821 5816 5812 5807 5803 5799 5795 5791 5787 5783 5779 5776 5772 5769 5766 5764 5762
5902 5902 5901 5900 5899 5898 5896 5893 5892 5890 5889 5884 5881 5878 5875 5872 5869 5865 5861 5857 5853 5849 5845 5841 5837 5833 5829 5825 5820 5816 5812 5807 5803 5799 5795 5791 5786 5783 5779 5775 5772 5768 5766 5763
5901 5900 5900 5899 5898 5899 5895 5893 5892 5890 5887 5884 5881 5879 5876 5873 5870 5866 5863 5859 5855 5852 5848 5844 5840 5836 5832 5828 5824 5820 5816 5811 5807 5803 5799 5795 5790 5786 5782 5778 5775 5771 5768 5766
5899 5899 5898 5898 5899 5896 5894 5892 5890 5888 5886 5884 5882 5879 5877 5874 5871 5868 5864 5861 5857 5854 5850 5847 5843 5839 5835 5831 5827 5823 5819 5815 5811 5807 5803 5798 5794 5790 5786 5782 5778 5775 5772 5769
5896 5896 5895 5895 5894 5893 5892 5890 5889 5887 5885 5883 5881 5879 5876 5874 5871 5868 5865 5862 5859 5856 5852 5849 5845 5842 5838 5834 5830 5826 5822 5818 5814 5810 5806 5802 5798 5794 5790 5786 5782 5778 5775 5772
5893 5892 5892 5892 5892 5891 5889 5888 5887 5885 5884 5882 5880 5878 5876 5873 5871 5869 5866 5863 5860 5857 5854 5851 5847 5844 5840 5837 5833 5829 5826 5822 5818 5813 5809 5805 5801 5797 5794 5790 5786 5783 5779 5776
5889 5889 5889 5889 5889 5888 5887 5886 5885 5883 5882 5880 5878 5876 5874 5872 5870 5868 5866 5863 5861 5858 5855 5852 5849 5846 5842 5839 5836 5832 5828 5825 5821 5817 5813 5809 5805 5801 5797 5794 5790 5787 5783 5780